Location: Unspecified
(51.5147°N, 7.4673°E)
Time: 02:47:19
(UTC+01:00)

Explorer 7 - Pass Details

Date: 16 February 2026
Orbit: 430 x 542 km, 50.2° (Epoch: 5 March)

Event Time Altitude Azimuth Distance (km) Brightness Sun altitude
Rises 18:19:27 0° 258° (WSW) 2,481 13.2 -5.7°
Reaches altitude 10° 18:21:34 10° 256° (WSW) 1,626 11.1 -6.0°
Maximum altitude 18:25:13 70° 173° (S) 516 6.7 -6.6°
Drops below altitude 10° 18:29:03 10° 89° (E) 1,698 8.7 -7.2°
Enters shadow 18:29:15 - 89° (E) 1,781 8.8 -7.2°
Sets 18:31:17 0° 87° (E) 2,604 - -7.5°
